Tracking 19969 objects as of 12-Nov-2019
Live streaming from Space Station
objects crossing your sky now
Track the group of recently launched Starlink satellites

UME 2 (ISS-B)

Track UME 2 (ISS-B) now!
10-day predictions
UME 2 (ISS-B) is classified as:


NORAD ID: 10674
Int'l Code: 1978-018A
Perigee: 979.5 km
Apogee: 1,226.4 km
Inclination: 69.4 °
Period: 107.2 minutes
Semi major axis: 7473 km
RCS: 1.4219 m2 (large)
Launch date: February 16, 1978
Source: Japan (JPN)
Launch site: TANEGASHIMA SPACE CENTER (TNSTA)
aabbcc
Your satellite tracking list
Your tracking list is empty




NASA's NSSDC Master Catalog

Two Line Element Set (TLE):
1 10674U 78018A   19315.88699126 -.00000062 +00000-0 -18240-4 0  9999
2 10674 069.3630 068.9902 0165175 204.0938 296.4505 13.43613191046982
Source of the keplerian elements: AFSPC